Flag for U.S.A. Weather past 2 weeks in Detroit, Michigan, U.S.A.

Now
63 °F

Sunny.


Feels Like: 63 °F
Forecast: 60 / 76 °F
Wind: 8 mph from Northeast

Location: Detroit City Airport

Current Time: Jul 24, 2014 at 9:10:54 AM

Latest Report: Jul 24, 2014 at 7:53 AM


Visibility: 10 mi

Pressure: 30.11 "Hg

Humidity: 73%

Dew point: 54 °F

Location of DetroitLocation

Historic Weather in Detroit — Graph

°F

Detroit temperature yesterday

Maximum temperature yesterday: 73 °F (at 1:53 PM)
Minimum temperature yesterday: 64 °F (at 11:53 PM)
Average temperature yesterday: 69 °F

Past Weeks' High & Low Weather Summary

 TemperatureHumidityPressure
High89 °F (Jul 22, 7:53 PM)90% (Jul 20, 5:53 AM)30.25 "Hg (Jul 20, 5:53 AM)
Low57 °F (Jul 16, 5:53 AM)29% (Jul 17, 3:53 PM)29.26 "Hg (Jul 13, 3:53 AM)
Average72 °F60%30.02 "Hg
* Reported Jul 9 8:53 AM — Jul 24 6:53 AM, Detroit, Weather by CustomWeather, © 2014

Note: Actual official high and low records may vary slightly from our data, if they occured in-between our weather recording intervals... More about our weather records

Advertising

Detroit weather history for previous 24 hours

 ConditionsComfort  
Time TempWeatherWind HumidityBarometerVisibility
6:53 AM
Jul 24
60 °FClear.9 mph75%30.10 "Hg10 mi
5:53 AM60 °FClear.8 mph72%30.08 "Hg10 mi
4:53 AM61 °FClear.8 mph70%30.06 "Hg6 mi
3:53 AM62 °FClear.7 mph62%30.06 "Hg10 mi
2:53 AM62 °FClear.6 mph60%30.06 "Hg10 mi
1:53 AM62 °FClear.6 mph62%30.07 "Hg10 mi
12:53 AM63 °FClear.7 mph63%30.08 "Hg10 mi
11:53 PM
Jul 23
64 °FClear.9 mph63%30.08 "Hg10 mi
10:53 PM65 °FClear.9 mph66%30.08 "Hg10 mi
9:53 PM67 °FSunny.8 mph63%30.08 "Hg10 mi
8:53 PM68 °FSunny.7 mph61%30.07 "Hg10 mi
7:53 PM71 °FPassing clouds.9 mph57%30.05 "Hg10 mi
6:53 PM72 °FScattered clouds.10 mph53%30.03 "Hg10 mi
5:53 PM72 °FPartly sunny.13 mph53%30.03 "Hg10 mi
4:53 PM72 °FOvercast.12 mph53%30.04 "Hg10 mi
3:53 PM71 °FOvercast.8 mph57%30.05 "Hg10 mi
2:53 PM73 °FOvercast.13 mph53%30.05 "Hg10 mi
1:53 PM73 °FOvercast.10 mph57%30.05 "Hg10 mi
12:53 PM71 °FOvercast.12 mph61%30.03 "Hg10 mi
11:53 AM71 °FOvercast.15 mph63%30.01 "Hg10 mi
10:53 AM66 °FOvercast.10 mph78%29.99 "Hg10 mi
9:53 AM66 °FOvercast.12 mph81%29.98 "Hg10 mi
Weather by CustomWeather, © 2014

See weather overviewHow to use our weather pages